FLOCK 4A-4 (44082 NORAD) Tracking and Keplerian Element Data

This shows tracking and keplerian element data for the satellite.

Feedback or suggestion? Click here.




ElementValue
Catalog44082
NameFLOCK 4A-4
Epoch Orbit309
Epoch Day111.72938322
Epoch Year2019
RAAN172.1024
Inclination97.4621
Eccentricity0.0013044
Argument of Perigee200.9411
Mean Anonmoly159.1292
Mean Motion15.21277923
Decay Rate1.534E-05
L11 44082U 19018E 19111.72938322 .00001534 00000-0 71646-4 0 9997
L22 44082 97.4621 172.1024 0013044 200.9411 159.1292 15.21277923 3095

Live tracking and technical data element details for FLOCK 4A-4 (NORAD 44082). FLOCK 4A-4 can be tracked NOW for your location showing map with azimuth and elevation plus other details from your city location.

Track the satellite on the map from your city or location and see movement details for azimuth, elevation, latitude, longitude, range, height, and movement on the map or in text.







IsCatalogInMostPopularTable: catalog: 44082, numindb: 2
Update: records affected: 1



GetName: 44082 FLOCK 4A-4

Hit Count: updated at: Tue, 23 Apr 2019 01:53:02 GMT